Location: Newark
(25.0000°N, 73.5000°E)
Time: 00:30:21
(UTC+00:00)

Tiros 1 despin weight - Pass Details

Date: 03 March 2021
Orbit: 593 x 641 km, 48.2° (Epoch: 15 April)

Event Time Altitude Azimuth Distance (km) Brightness Sun altitude
Rises 17:52:10 0° 248° (WSW) 2,849 - -62.4°
Reaches altitude 10° 17:54:39 10° 258° (WSW) 1,955 - -62.9°
Maximum altitude 17:58:40 31° 321° (NW) 1,074 - -63.5°
Drops below altitude 10° 18:02:44 10° 25° (NNE) 1,988 - -64.2°
Sets 18:05:17 0° 35° (NE) 2,905 - -64.7°
